Regional Weather Roundup
Issued by NWS

Home | Current Version | Previous Version | Text Only | Print | Product List | Glossary Off
Versions: 1 2 3 4 5 6 7 8 9 10 11 12 13 14 15 16 17 18 19 20 21 22 23 24 25 26 27 28 29 30 31 32 33 34 35 36 37 38 39 40 41 42 43 44 45 46 47 48 49 50

000
ASUS43 KMKX 260311
RWRWI

WISCONSIN REGIONAL WEATHER ROUNDUP
NATIONAL WEATHER SERVICE MILWAUKEE/SULLIVAN WI
1000 PM CDT FRI MAY 25 2018

NOTE: "FAIR" INDICATES FEW OR NO CLOUDS BELOW 12,000 FEET WITH NO
SIGNIFICANT WEATHER AND/OR OBSTRUCTIONS TO VISIBILITY.

WIZ001-002-006>008-014>016-023>028-260400-
NORTHWEST WISCONSIN

CITY           SKY/WX    TMP DP  RH WIND       PRES   REMARKS
SUPERIOR ARPT  FAIR      65  61  85 CALM      29.62R
ASHLAND        FAIR      68  61  78 S8        29.65R
HAYWARD        FAIR      65  64  97 CALM      29.69R FOG
SIREN          FAIR      70  60  70 S6        29.69R
CUMBERLAND     FAIR      63  59  88 SE3       29.71R
RICE LAKE      FAIR      66  60  81 S5        29.72R
CHETEK         FAIR      64  61  91 CALM      29.71S
LADYSMITH      FAIR      68  64  86 SW6       29.72F
EAU CLAIRE     FAIR      64  61  90 CALM      29.70R
MENOMONIE      FAIR      64  60  88 S6        29.72R
NEW RICHMOND   FAIR      66  59  79 CALM      29.71S
OSCEOLA        FAIR      66  61  85 SE3       29.73R
$$

WIZ003>005-009-010-017-018-260400-
NORTH CENTRAL WISCONSIN

CITY           SKY/WX    TMP DP  RH WIND       PRES   REMARKS
MANITOWISH WTR FAIR      69  66  92 W3        29.70S
ARBOR VITAE    FAIR      72  67  84 W3        29.70S
WOODRUFF       FAIR      72  67  84 W3        29.70S
RHINELANDER    FAIR      72  61  68 SW6       29.73R
EAGLE RIVER    FAIR      67  64  91 S3        29.71R
LAND O LAKES   FAIR      66  64  94 CALM      29.71S
PHILLIPS       FAIR      69  65  87 SW5       29.70R
TOMAHAWK       FAIR      64  58  83 CALM      29.73R
MEDFORD        FAIR      69  61  77 SW10      29.72R
MERRILL        FAIR      65  63  91 CALM      29.72R
$$

WIZ029-030-035-036-043>047-260400-
CENTRAL WISCONSIN

CITY           SKY/WX    TMP DP  RH WIND       PRES   REMARKS
WAUSAU         NOT AVBL
MOSINEE        MOCLDY    70  64  83 S7        29.73S
MARSHFIELD     FAIR      72  64  76 SW10      29.72S
STEVENS POINT  FAIR      72  67  86 SW5       29.73S
WAUPACA        FAIR      76  65  68 SW3       29.72S
WAUTOMA        FAIR      76  64  66 S3        29.73R
WISC RAPIDS    FAIR      73  65  75 W5        29.74R
CAMP DOUGLAS   FAIR      70  67  89 NW14G20   29.75R
$$

WIZ011>013-019>022-031-037>040-048>050-260400-
NORTHEAST WISCONSIN

CITY           SKY/WX    TMP DP  RH WIND       PRES   REMARKS
ANTIGO         FAIR      66  61  84 CALM      29.73S
SHAWANO        FAIR      74  63  68 CALM      29.71R
OCONTO         MOCLDY    73  66  81 W5        29.71R
STURGEON BAY   FAIR      68  58  70 NW8       29.73R THUNDER
GREEN BAY      FAIR      78  64  61 S6        29.72R HX  80
MANITOWOC      FAIR      63  56  78 E5        29.74R
APPLETON       MOCLDY    75  61  60 SW8       29.71S
CLINTONVILLE   FAIR      71  66  83 CALM      29.71R
OSHKOSH        FAIR      76  62  62 S9        29.73R
$$

WIZ032>034-041-042-053>061-260400-
SOUTHWEST WISCONSIN

CITY           SKY/WX    TMP DP  RH WIND       PRES   REMARKS
LA CROSSE      FAIR      67  64  90 W14G23    29.79R
SPARTA         FAIR      64  62  93 CALM      29.76R
VIROQUA        FAIR      66  64  93 W5        29.76R
BOSCOBEL       FAIR      74  56  53 VRB6G22   29.74F
PRAIRIE DU CHI FAIR      65  59  80 SW3       29.76S
PLATTEVILLE    CLOUDY    67  63  88 W9        29.83R
$$

WIZ056-057-062-063-064-067-068-260400-
SOUTH CENTRAL WISCONSIN

CITY           SKY/WX    TMP DP  RH WIND       PRES   REMARKS
REEDSBURG      MOCLDY    74  65  73 SW14G21   29.70F
BARABOO/DELLS  FAIR      77  62  60 S24G30    29.69F
LONE ROCK      LGT RAIN  74  67  78 SW15G22   29.76R
MINERAL POINT  LGT RAIN  70  61  73 W9        29.81R
MADISON        MOCLDY    76  63  64 SW8       29.75S
MIDDLETON      FAIR      75  64  67 SW8       29.76F
WATERTOWN      FAIR      71  64  80 S5        29.76S
MONROE         FAIR      72  63  73 SW13G18   29.80R
JANESVILLE     FAIR      72  61  68 S3        29.79R
$$

WIZ051-052-058>065-066-070>072-260400-
SOUTHEAST WISCONSIN

CITY           SKY/WX    TMP DP  RH WIND       PRES   REMARKS
MILWAUKEE      MOCLDY    76  63  64 SW9       29.76S
WAUKESHA       FAIR      70  57  64 SW6       29.78F
MILWAUKEE/TIMM FAIR      72  55  56 S6        29.77S
RACINE         FAIR      70  63  78 S5        29.80R
BURLINGTON     FAIR      69  61  76 SW3       29.79S
KENOSHA        CLOUDY    74  63  68 CALM      29.79R
FOND DU LAC    FAIR      75  59  57 SW9       29.74R
SHEBOYGAN      FAIR      74  62  66 SW8       29.74R
WEST BEND      FAIR      70  55  60 S5        29.76S
JUNEAU         FAIR      72  60  66 S5        29.77R
$$

LSZ147-162-260400-
LAKE SUPERIOR

STATION/POSITION TIME  TEMP    WIND        PRES    WAVE
                       AIR SEA DIR/SP/G            HT/PER
                 (UTC) (F)     (DEG/KT/KT) (MB)    (FT/S)
W MID LAKE BUOY  0250   43 37  230/  4/  6 1002.9R   0
DEVILS ISLAND    0300   74     220/  8/  9 1002.5R
SAXON HARBOR     0230   76     200/  5/ 10 1002.7F
$$

LMZ867-665-643>646-260400-
LAKE MICHIGAN

STATION/POSITION TIME  TEMP    WIND        PRES    WAVE
                       AIR SEA DIR/SP/G            HT/PER
                 (UTC) (F)     (DEG/KT/KT) (MB)    (FT/S)
N MID LAKE BUOY  0250   44 38  210/ 12/ 14 1005.9R   3/ 5
NORTHPORT PIER   0303   62     290/ 12/ 35 1007.1
KEWAUNEE LAKESHO 0248          180/  6/  7 1005.9R
SHEBOYGAN LAKESH 0300   70     200/  5/  5 1006.4R
PORT WASHINGTON  0240   60     210/  3/  7 1008.5R
ATWATER BUOY     0207   56 48  170/  8/ 10 1008.1    1/ 3
MILWAUKEE LAKESH 0250   75     220/  8/  9   N/A
S MID LAKE BUOY  0250   54 39  230/  6/  8 1008.6R   0
KENOSHA   LAKESH 0300   77                 1008.5
$$

TC  - TEMPERATURE IN CELSIUS
VSB - VISIBILITY IN STATUTE MILES
WCI - WIND CHILL INDEX
HX  - HEAT INDEX




USA.gov is the U.S. government's official web portal to all federal, state and local government web resources and services.